Weather History for Bangkok (Suvarnabhumi), Thailand

Change the Weather History Date:

Saturday, November 19, 2011

  Actual Average (VTBD) Record (VTBD)
Temperature  
Mean Temperature 87 °F -  
Max Temperature 98 °F 89 °F 95 °F (2006)
Min Temperature 76 °F 70 °F 68 °F (2001)
Cooling Degree Days 22    
Growing Degree Days 37 (Base 50)    
Moisture  
Dew Point 69 °F    
Average Humidity 57    
Maximum Humidity 84    
Minimum Humidity 30    
Precipitation  
Precipitation 0.00 in 0.04 in - ()
Sea Level Pressure  
Sea Level Pressure 29.83 in    
Wind  
Wind Speed 4 mph ()    
Max Wind Speed 9 mph    
Max Gust Speed -    
Visibility 5.4 miles    
Events      
Averages and records for this station are not official NWS values.
T = Trace of Precipitation, MM = Missing Value Source: Averaged Metar Reports

Daily Weather History Graph

Daily Weather History Graph

Search for Another Location

Airport:

Trip Planner

Search our weather history database for the weather conditions in past years. The results will help you decide how hot, cold, wet, or windy it might be!

Date:

Astronomy

Nov. 19, 2011 Rise Set
Actual Time 6:16 AM ICT 5:45 PM ICT
Civil Twilight 5:54 AM ICT 6:08 PM ICT
Nautical Twilight 5:28 AM ICT 6:34 PM ICT
Astronomical Twilight 5:02 AM ICT 6:59 PM ICT
Moon 12:09 AM ICT (11/19) 12:45 PM ICT (11/19)
Length of Visible Light 12h 14m
Length of Day
11h 29m
Last Quarter, 44% of the Moon is Illuminated
Nov 19
Last Quarter
Nov 25
New
Dec 2
First Quarter
Dec 10
Full
Dec 18
Last Quarter

Hourly Weather History & Observations

Time (ICT) Temp. Heat Index Dew Point Humidity Pressure Visibility Wind Dir Wind Speed Gust Speed Precip Events Conditions
12:00 AM 84.2 °F 89.6 °F 71.6 °F 66% 29.83 in 6.2 mi ESE 5.8 mph - N/A   Mostly Cloudy
12:30 AM 84.2 °F 89.6 °F 71.6 °F 66% 29.83 in 5.6 mi SE 5.8 mph - N/A   Scattered Clouds
1:00 AM 80 °F - 72 °F 71% 29.82 in 6 mi Calm Calm - -   Clear
1:00 AM 84.2 °F 89.6 °F 71.6 °F 66% 29.83 in 5.6 mi ESE 5.8 mph - N/A   Scattered Clouds
1:30 AM 84.2 °F 89.6 °F 71.6 °F 66% 29.83 in 5.0 mi SSE 5.8 mph - N/A   Scattered Clouds
2:00 AM 82.4 °F 87.2 °F 71.6 °F 70% 29.80 in 4.3 mi SE 3.5 mph - N/A   Scattered Clouds
2:30 AM 80.6 °F 84.6 °F 71.6 °F 74% 29.80 in 4.3 mi Calm Calm - N/A   Scattered Clouds
3:00 AM 82.4 °F 87.2 °F 71.6 °F 70% 29.80 in 4.3 mi Calm Calm - N/A   Scattered Clouds
3:30 AM 80.6 °F 84.6 °F 71.6 °F 74% 29.80 in 4.3 mi Calm Calm - N/A   Scattered Clouds
4:00 AM 78.8 °F - 71.6 °F 78% 29.80 in 4.3 mi Calm Calm - N/A   Scattered Clouds
4:30 AM 78.8 °F - 73.4 °F 83% 29.80 in 4.3 mi Calm Calm - N/A   Scattered Clouds
5:00 AM 78.8 °F - 71.6 °F 78% 29.83 in 4.3 mi Calm Calm - N/A   Scattered Clouds
5:30 AM 80.6 °F 84.6 °F 71.6 °F 74% 29.83 in 3.7 mi Calm Calm - N/A   Scattered Clouds
6:00 AM 78.8 °F - 71.6 °F 78% 29.83 in 3.1 mi Calm Calm - N/A   Scattered Clouds
6:30 AM 77.0 °F - 71.6 °F 83% 29.83 in 2.5 mi Calm Calm - N/A   Scattered Clouds
7:00 AM 77 °F - 73 °F 84% 29.86 in 6 mi Calm Calm - -   Clear
7:00 AM 78.8 °F - 73.4 °F 83% 29.86 in 2.5 mi NNE 2.3 mph - N/A   Scattered Clouds
7:30 AM 82.4 °F 88.2 °F 73.4 °F 74% 29.86 in 2.5 mi NNE 3.5 mph - N/A   Scattered Clouds
8:00 AM 84.2 °F 90.9 °F 73.4 °F 70% 29.89 in 2.5 mi NNE 4.6 mph - N/A   Scattered Clouds
8:30 AM 86.0 °F 90.4 °F 69.8 °F 58% 29.89 in 4.3 mi East 5.8 mph - N/A   Scattered Clouds
9:00 AM 86.0 °F 91.8 °F 71.6 °F 62% 29.92 in 5.0 mi East 5.8 mph - N/A   Scattered Clouds
9:30 AM 87.8 °F 92.6 °F 69.8 °F 55% 29.92 in 5.6 mi ENE 5.8 mph - N/A   Scattered Clouds
10:00 AM 89.6 °F 96.2 °F 71.6 °F 55% 29.92 in 6.2 mi NE 5.8 mph - N/A   Scattered Clouds
10:30 AM 89.6 °F 94.7 °F 69.8 °F 52% 29.89 in 6.2 mi NE 5.8 mph - N/A   Scattered Clouds
11:00 AM 91.4 °F 95.4 °F 68.0 °F 46% 29.89 in 6.2 mi ENE 5.8 mph - N/A   Scattered Clouds
11:30 AM 91.4 °F 94.0 °F 66.2 °F 43% 29.89 in 6.2 mi ENE 5.8 mph - N/A   Scattered Clouds
12:00 PM 93.2 °F 96.2 °F 66.2 °F 41% 29.86 in 6.2 mi East 6.9 mph - N/A   Scattered Clouds
12:30 PM 93.2 °F 96.2 °F 66.2 °F 41% 29.86 in 6.2 mi NE 8.1 mph - N/A   Scattered Clouds
1:00 PM 97 °F - 69 °F 30% 29.81 in 7 mi ENE 2.3 mph - -   Clear
1:00 PM 93.2 °F 94.9 °F 64.4 °F 38% 29.83 in 6.2 mi NE 6.9 mph - N/A   Scattered Clouds
1:30 PM 93.2 °F 94.1 °F 62.6 °F 36% 29.83 in 6.2 mi NE 8.1 mph - N/A   Scattered Clouds
2:00 PM 95.0 °F 95.2 °F 60.8 °F 32% 29.80 in 6.2 mi ENE 8.1 mph - N/A   Scattered Clouds
2:30 PM 95.0 °F 95.2 °F 60.8 °F 32% 29.80 in 6.2 mi NE 9.2 mph - N/A   Scattered Clouds
3:00 PM 93.2 °F 92.6 °F 59.0 °F 32% 29.77 in 6.2 mi NE 8.1 mph - N/A   Scattered Clouds
3:30 PM 93.2 °F 93.3 °F 60.8 °F 34% 29.77 in 6.2 mi ENE 9.2 mph - N/A   Scattered Clouds
4:00 PM 93.2 °F 93.3 °F 60.8 °F 34% 29.77 in 6.2 mi ENE 6.9 mph - N/A   Scattered Clouds
4:30 PM 93.2 °F 94.1 °F 62.6 °F 36% 29.77 in 6.2 mi NE 6.9 mph - N/A   Scattered Clouds
5:00 PM 93.2 °F 93.3 °F 60.8 °F 34% 29.77 in 6.2 mi NNE 6.9 mph - N/A   Scattered Clouds
5:30 PM 91.4 °F 92.1 °F 62.6 °F 38% 29.77 in 6.2 mi NNE 4.6 mph - N/A   Scattered Clouds
6:00 PM 89.6 °F 91.1 °F 64.4 °F 43% 29.80 in 6.2 mi NNE 4.6 mph - N/A   Scattered Clouds
6:30 PM 89.6 °F 92.2 °F 66.2 °F 46% 29.80 in 6.2 mi NE 3.5 mph - N/A   Scattered Clouds
7:00 PM 89 °F - 70 °F 44% 29.80 in 7 mi Calm Calm - -   Clear
7:00 PM 87.8 °F 90.4 °F 66.2 °F 49% 29.80 in 6.2 mi NE 4.6 mph - N/A   Scattered Clouds
7:30 PM 87.8 °F 90.4 °F 66.2 °F 49% 29.83 in 6.2 mi NNE 4.6 mph - N/A   Scattered Clouds
8:00 PM 87.8 °F 91.4 °F 68.0 °F 52% 29.83 in 6.2 mi North 5.8 mph - N/A   Scattered Clouds
8:30 PM 86.0 °F 90.4 °F 69.8 °F 58% 29.86 in 6.2 mi North 5.8 mph - N/A   Scattered Clouds
9:00 PM 84.2 °F 88.4 °F 69.8 °F 62% 29.86 in 6.2 mi North 4.6 mph - N/A   Scattered Clouds
9:30 PM 84.2 °F 88.4 °F 69.8 °F 62% 29.86 in 6.2 mi NE 4.6 mph - N/A   Scattered Clouds
10:00 PM 84.2 °F 88.4 °F 69.8 °F 62% 29.86 in 6.2 mi NE 3.5 mph - N/A   Scattered Clouds
10:30 PM 86.0 °F 91.8 °F 71.6 °F 62% 29.86 in 6.2 mi East 5.8 mph - N/A   Scattered Clouds
11:00 PM 86.0 °F 93.4 °F 73.4 °F 66% 29.86 in 5.6 mi East 5.8 mph - N/A   Scattered Clouds
11:30 PM 84.2 °F 90.9 °F 73.4 °F 70% 29.86 in 5.0 mi ENE 4.6 mph - N/A   Scattered Clouds